Date,TemperatureHighF,TemperatureAvgF,TemperatureLowF,DewpointHighF,DewpointAvgF,DewpointLowF,HumidityHigh,HumidityAvg,HumidityLow,PressureMaxIn,PressureMinIn,WindSpeedMaxMPH,WindSpeedAvgMPH,GustSpeedMaxMPH,PrecipitationSumIn
2012-12-1,34.0,33.4,33.0,33.0,31.8,31.0,96,94,92,0.00,40.00,0,-999,0,0.35
2012-12-2,33.0,31.9,31.0,32.0,30.2,29.0,95,94,91,0.00,40.00,0,-999,0,1.50
2012-12-3,34.0,32.3,30.0,32.0,30.7,28.0,96,94,91,0.00,40.00,0,-999,0,1.03
2012-12-4,34.0,32.8,32.0,32.0,31.2,30.0,95,94,93,0.00,40.00,0,-999,0,1.50
2012-12-5,32.0,28.4,27.0,30.0,25.4,23.0,94,89,78,0.00,40.00,0,-999,0,0.22
2012-12-6,30.0,28.7,28.0,28.0,27.0,26.0,94,94,92,0.00,40.00,0,-999,0,1.33
2012-12-7,31.0,28.1,24.0,30.0,26.2,21.0,95,93,85,0.00,40.00,0,-999,0,1.60
2012-12-8,27.0,24.7,22.0,24.0,22.4,20.0,93,91,86,0.00,40.00,0,-999,0,1.38
2012-12-9,33.0,26.4,22.0,32.0,24.4,20.0,95,92,89,0.00,40.00,0,-999,0,0.09
2012-12-10,34.0,31.6,28.0,32.0,29.8,26.0,96,94,92,0.00,40.00,0,-999,0,0.03
2012-12-11,32.0,29.8,28.0,30.0,28.0,26.0,95,93,91,0.00,40.00,0,-999,0,0.29
2012-12-12,31.0,29.3,26.0,29.0,27.2,24.0,94,92,90,0.00,40.00,0,-999,0,0.03
2012-12-13,28.0,24.0,19.0,25.0,21.2,17.0,94,89,85,0.00,40.00,0,-999,0,0.03
2012-12-14,28.0,24.5,18.0,26.0,22.3,15.0,93,91,88,0.00,40.00,0,-999,0,0.08
2012-12-15,22.0,20.2,17.0,20.0,17.9,15.0,95,91,88,0.00,40.00,0,-999,0,0.30
2012-12-16,29.0,25.9,25.0,25.0,23.4,22.0,95,90,85,0.00,40.00,0,-999,0,0.88
2012-12-17,29.0,25.0,22.0,28.0,23.5,20.0,97,94,92,0.00,40.00,0,-999,0,1.05
2012-12-18,24.0,22.1,21.0,22.0,19.7,18.0,93,91,86,0.00,40.00,0,-999,0,0.23
2012-12-19,22.0,20.2,19.0,20.0,18.1,17.0,92,90,89,0.00,40.00,0,-999,0,0.34
2012-12-20,28.0,24.9,20.0,26.0,22.7,18.0,93,91,88,0.00,40.00,0,-999,0,0.35
2012-12-21,27.0,23.1,17.0,25.0,20.8,15.0,93,91,86,0.00,40.00,0,-999,0,0.05
2012-12-22,31.0,28.2,26.0,28.0,26.1,24.0,95,92,89,0.00,40.00,0,-999,0,0.10
2012-12-23,27.0,26.3,26.0,26.0,24.4,23.0,95,92,89,0.00,40.00,0,-999,0,0.00
2012-12-24,29.0,26.2,23.0,26.0,23.7,20.0,91,90,88,0.00,40.00,0,-999,0,0.00
2012-12-25,25.0,23.7,23.0,22.0,21.5,21.0,93,91,89,0.00,40.00,0,-999,0,0.18
2012-12-26,27.0,25.1,24.0,24.0,22.7,21.0,93,90,87,0.00,40.00,0,-999,0,0.04
2012-12-27,31.0,27.3,24.0,28.0,25.2,22.0,94,92,88,0.00,40.00,0,-999,0,0.11
2012-12-28,27.0,22.7,20.0,25.0,21.1,19.0,96,93,86,0.00,40.00,0,-999,0,0.00
2012-12-29,28.0,23.6,19.0,27.0,22.2,17.0,95,94,92,0.00,40.00,0,-999,0,0.00
2012-12-30,26.0,21.8,20.0,22.0,19.6,18.0,95,91,83,0.00,40.00,0,-999,0,0.00
2012-12-31,22.0,18.5,16.0,20.0,16.7,15.0,95,93,91,0.00,40.00,0,-999,0,0.00